Location: Poughquag
(41.6090°N, 73.6820°W)
Time: 12:53:39
(UTC-04:00)

Tiros 1 - Pass Details

Date: 03 June 2020
Orbit: 630 x 664 km, 48.4° (Epoch: 06 July)

Event Time Altitude Azimuth Distance (km) Brightness Sun altitude
Rises 14:55:59 0° 285° (WNW) 2,968 10.9 57.9°
Reaches altitude 10° 14:58:30 10° 294° (WNW) 2,051 10.2 57.5°
Maximum altitude 15:02:51 35° 1° (N) 1,035 8.5 56.8°
Drops below altitude 10° 15:07:10 10° 68° (ENE) 2,030 9.5 56.1°
Sets 15:09:39 0° 77° (ENE) 2,933 10.2 55.6°
